{"data":{"norad_id":68000,"intl_designator":"2026-039Q","name":"STARLINK-36931","alt_names":[],"object_type":"PAYLOAD","status":"ACTIVE","operator":null,"country":"US","launch_date":"2026-02-27","launch_site_code":"AFETR","launch_vehicle":null,"mission":null,"orbit_class":"UNKNOWN","rcs_meters":null,"size_class":null,"mass_kg":null,"dimensions":null,"purposes":["comms"],"wikipedia_slug":null,"has_3d_model":false,"image_url":null,"decayed_at":null,"tle_current":{"epoch":"2026-09-19T15:50:34.786176Z","epoch_age_seconds":132246,"freshness":"FRESH","line1":"1 68000U 26039Q   26262.66012484  .00011635  00000+0  43148-3 0  9991","line2":"2 68000  43.0012  33.0523 0001571 271.1466  88.9206 15.27593217 31372","mean_motion":15.27593217,"eccentricity":0.0001571,"inclination_deg":43.0012,"raan_deg":33.0523,"arg_perigee_deg":271.1466,"mean_anomaly_deg":88.9206,"bstar":0.00043148,"rev_number":3137,"period_min":94.265933101482,"perigee_km":481.93163375394,"apogee_km":484.08740599049,"semimajor_km":6861.1465198722,"source":"CELESTRAK","updated_at":"2026-09-20T09:00:43.737603Z"}}}